Weather History for Port Angeles, WA

Change the Weather History Date:

Wednesday, January 1, 2014

  Actual Average Record
Temperature  
Mean Temperature 40 °F -  
Max Temperature 44 °F 44 °F 56 °F (1963)
Min Temperature 37 °F 32 °F 14 °F (1979)
Degree Days  
Heating Degree Days 24    
Moisture  
Dew Point 39 °F    
Average Humidity 92    
Maximum Humidity 97    
Minimum Humidity 85    
Precipitation  
Precipitation 0.04 in - - ()
Sea Level Pressure  
Sea Level Pressure 30.36 in    
Wind  
Wind Speed 3 mph (SE)    
Max Wind Speed 6 mph    
Max Gust Speed -    
Visibility 9 miles    
Events Fog , Rain    
Averages and records for this station are not official NWS values.
T = Trace of Precipitation, MM = Missing Value Source: NWS Daily Summary

Daily Weather History Graph

Daily Weather History Graph

Search for Another Location

Airport:

Trip Planner

Search our weather history database for the weather conditions in past years. The results will help you decide how hot, cold, wet, or windy it might be!

Date:

Astronomy

Jan. 01, 2014 Rise Set
Actual Time 8:04 AM PST 4:31 PM PST
Civil Twilight 7:28 AM PST 5:07 PM PST
Nautical Twilight 6:48 AM PST 5:47 PM PST
Astronomical Twilight 6:10 AM PST 6:24 PM PST
Moon 7:54 AM PST (1/1) 5:29 PM PST (1/1)
Length of Visible Light 9h 39m
Length of Day
8h 26m
New Moon, 0% of the Moon is Illuminated
Jan 1
New Moon
Jan 7
First Quarter
Jan 15
Full
Jan 23
Last Quarter
Jan 30
New

Hourly Weather History & Observations

Time (PST) Temp. Windchill Dew Point Humidity Pressure Visibility Wind Dir Wind Speed Gust Speed Precip Events Conditions
12:53 AM 39.0 °F 35.7 °F 37.9 °F 96% 30.39 in 10.0 mi SW 4.6 mph - N/A   Overcast
1:53 AM 41.0 °F 37.1 °F 39.0 °F 93% 30.39 in 10.0 mi WSW 5.8 mph - N/A   Overcast
2:07 AM 41.0 °F 38.0 °F 37.9 °F 89% 30.39 in 10.0 mi WSW 4.6 mph - N/A   Overcast
2:53 AM 39.9 °F 37.8 °F 37.0 °F 89% 30.41 in 10.0 mi WSW 3.5 mph - N/A   Overcast
3:17 AM 39.9 °F 36.7 °F 37.0 °F 89% 30.40 in 10.0 mi WSW 4.6 mph - N/A   Overcast
3:26 AM 39.9 °F 37.8 °F 37.0 °F 89% 30.40 in 10.0 mi SW 3.5 mph - N/A   Overcast
3:53 AM 39.9 °F - 37.9 °F 93% 30.39 in 10.0 mi Calm Calm - N/A   Overcast
4:38 AM 39.9 °F - 37.9 °F 93% 30.38 in 10.0 mi Calm Calm - N/A   Overcast
4:53 AM 41.0 °F - 37.9 °F 89% 30.39 in 10.0 mi Calm Calm - N/A   Overcast
5:03 AM 41.0 °F - 37.9 °F 89% 30.38 in 10.0 mi Calm Calm - N/A   Overcast
5:53 AM 41.0 °F - 39.0 °F 93% 30.39 in 10.0 mi Calm Calm - N/A   Overcast
6:53 AM 39.0 °F - 37.0 °F 93% 30.38 in 10.0 mi Calm Calm - N/A   Overcast
7:01 AM 37.9 °F - 36.0 °F 93% 30.38 in 10.0 mi Calm Calm - N/A   Overcast
7:12 AM 37.9 °F - 36.0 °F 93% 30.38 in 10.0 mi Calm Calm - N/A   Overcast
7:40 AM 37.0 °F - 36.0 °F 96% 30.37 in 1.8 mi Calm Calm - N/A   Overcast
7:45 AM 37.0 °F - 36.0 °F 96% 30.38 in 0.8 mi Calm Calm - N/A   Overcast
7:53 AM 37.9 °F - 37.0 °F 97% 30.39 in 0.5 mi Calm Calm - N/A Fog Fog
7:59 AM 37.9 °F - 37.0 °F 97% 30.38 in 2.0 mi Calm Calm - N/A   Overcast
8:06 AM 37.9 °F - 37.0 °F 97% 30.38 in 10.0 mi Calm Calm - N/A   Overcast
8:10 AM 37.9 °F - 36.0 °F 93% 30.38 in 10.0 mi Calm Calm - N/A   Overcast
8:20 AM 37.0 °F 34.5 °F 35.1 °F 93% 30.38 in 10.0 mi ESE 3.5 mph - N/A   Overcast
8:28 AM 37.0 °F - 36.0 °F 96% 30.38 in 6.0 mi Calm Calm - N/A   Overcast
8:53 AM 39.9 °F 37.8 °F 37.9 °F 93% 30.40 in 10.0 mi SSW 3.5 mph - N/A   Overcast
9:53 AM 42.1 °F 39.2 °F 39.9 °F 92% 30.39 in 8.0 mi East 4.6 mph - N/A   Overcast
10:53 AM 44.1 °F - 39.9 °F 85% 30.39 in 10.0 mi Calm Calm - N/A   Overcast
11:32 AM 44.1 °F 41.5 °F 39.9 °F 85% 30.37 in 10.0 mi ESE 4.6 mph - N/A   Overcast
11:53 AM 44.1 °F 41.5 °F 39.9 °F 85% 30.37 in 10.0 mi East 4.6 mph - N/A   Overcast
12:23 PM 43.0 °F 40.3 °F 39.9 °F 89% 30.36 in 10.0 mi East 4.6 mph - N/A   Overcast
12:53 PM 44.1 °F - 39.9 °F 85% 30.36 in 10.0 mi Calm Calm - N/A   Overcast
1:53 PM 44.1 °F 42.5 °F 39.9 °F 85% 30.36 in 10.0 mi East 3.5 mph - N/A   Overcast
2:53 PM 44.1 °F - 41.0 °F 89% 30.36 in 10.0 mi Calm Calm - 0.00 in Rain Light Rain
3:49 PM 42.8 °F 41.1 °F 41.0 °F 93% 30.35 in 8.0 mi ESE 3.5 mph - 0.01 in Rain Light Rain
3:53 PM 43.0 °F 40.3 °F 41.0 °F 93% 30.36 in 8.0 mi ESE 4.6 mph - 0.02 in Rain Light Rain
4:36 PM 43.0 °F 40.3 °F 41.0 °F 93% 30.34 in 8.0 mi SE 4.6 mph - 0.01 in Rain Light Rain
4:53 PM 43.0 °F 40.3 °F 39.9 °F 89% 30.35 in 7.0 mi ESE 4.6 mph - 0.01 in Rain Light Rain
5:33 PM 43.0 °F 40.3 °F 39.9 °F 89% 30.33 in 10.0 mi ESE 4.6 mph - 0.00 in   Overcast
5:53 PM 43.0 °F 39.5 °F 39.9 °F 89% 30.33 in 10.0 mi ESE 5.8 mph - 0.00 in Rain Light Rain
6:53 PM 43.0 °F 39.5 °F 39.9 °F 89% 30.32 in 9.0 mi ESE 5.8 mph - 0.01 in   Overcast
7:30 PM 43.0 °F 39.5 °F 41.0 °F 93% 30.30 in 7.0 mi ESE 5.8 mph - N/A   Overcast
7:53 PM 42.1 °F 39.2 °F 41.0 °F 96% 30.30 in 7.0 mi ESE 4.6 mph - N/A   Overcast
8:53 PM 43.0 °F 41.3 °F 39.9 °F 89% 30.29 in 10.0 mi East 3.5 mph - 0.00 in   Overcast
9:45 PM 42.1 °F 40.2 °F 39.9 °F 92% 30.27 in 10.0 mi SE 3.5 mph - N/A   Overcast
9:53 PM 42.1 °F 40.2 °F 39.9 °F 92% 30.28 in 10.0 mi South 3.5 mph - N/A   Overcast
10:53 PM 42.1 °F - 41.0 °F 96% 30.27 in 10.0 mi Calm Calm - N/A   Overcast
11:53 PM 42.1 °F 39.2 °F 39.9 °F 92% 30.26 in 9.0 mi SSE 4.6 mph - N/A   Overcast